Regional Weather Roundup
Issued by NWS

Home | Current Version | Previous Version | Graphics & Text | Print | Product List | Glossary On
Versions: 1 2 3 4 5 6 7 8 9 10 11 12 13 14 15 16 17 18 19 20 21 22 23 24 25 26 27 28 29 30 31 32 33 34 35 36 37 38 39 40 41 42 43 44 45 46 47 48
000
ASUS45 KSLC 280810
RWRUT

UTAH REGIONAL WEATHER ROUNDUP
NATIONAL WEATHER SERVICE SALT LAKE CITY UT
200 AM MDT SAT MAR 28 2015

UTZ001>011-023>025-280900-

NORTHERN UTAH

CITY           SKY/WX    TMP DP  RH WIND       PRES   REMARKS
BRIGHAM CITY   CLEAR     45  37  73 CALM      30.12F
HILL AFB       CLEAR     52  29  41 E15       30.13F
LOGAN          CLEAR     41  33  73 CALM      30.13F
OGDEN          CLEAR     50  30  46 S9        30.11F
PROVO AIRPORT  CLEAR     45  34  65 E3        30.16F
SALT LAKE CITY CLEAR     53  34  48 SE9       30.12F
VERNAL         CLEAR     48  28  46 W5        30.16F
WENDOVER       CLEAR     46  27  46 NE8       30.10F
HEBER CITY     CLEAR     34  27  75 CALM      30.22S
WEST JORDAN    CLEAR     50  34  53 SW6       30.14F

$$

UTZ012>022-026-027-280900-

SOUTHERN/CENTRAL UTAH

CITY           SKY/WX    TMP DP  RH WIND       PRES   REMARKS
BLANDING       PTCLDY    47  22  38 E5        30.29S
BRYCE CANYON   PTCLDY    33  25  72 W10       30.33F WCI  25
CEDAR CITY     CLEAR     49  25  39 SE5       30.21F
DELTA          CLEAR     47  27  45 S6        30.15F
HANKSVILLE     CLEAR     41  19  42 CALM      30.18S
MILFORD        CLEAR     48  24  39 S10       30.17F
MOAB/CYNLANDS  CLEAR     44  21  40 CALM      30.14S
PRICE          CLEAR     45  22  40 N6        30.20F
ST GEORGE      SUNNY     59  27  29 SE5       30.13S
KANAB          CLEAR     37  23  56 NE6       30.25F WCI  33

$$

REGIONAL REPORTS     COLORADO/ARIZONA

CITY           SKY/WX    TMP DP  RH WIND       PRES   REMARKS
CRAIG, CO      CLEAR     34  28  79 CALM      30.22F
GRAND JUNCTION CLEAR     48  25  40 E5        30.17F
RIFLE          CLEAR     42  26  53 CALM      30.22F
MONTROSE       CLEAR     47  25  42 SE13      30.24F
CORTEZ         CLEAR     34  22  61 E6        30.25F WCI  29
PAGE, AZ       CLEAR     60  21  22 W3        30.16S
GRAND CANYON   PTCLDY    29  20  69 CALM      30.31F
KINGMAN        CLEAR     51  23  33 SE3       30.15S
FLAGSTAFF      CLEAR     38  20  48 CALM      30.33F

$$

REGIONAL REPORTS    NEVADA/IDAHO/WYOMING

CITY           SKY/WX    TMP DP  RH WIND       PRES   REMARKS
LAS VEGAS, NV  CLEAR     69  24  18 S8        30.01F
ELY            CLEAR     50  20  30 S13       30.21F
ELKO           CLEAR     43  27  53 CALM      30.12F
POCATELLO, ID  CLEAR     55  31  39 CALM      30.07F
BURLEY         CLEAR     56  30  37 S13       30.02F
EVANSTON, WY   PTCLDY    43  25  49 E6        30.25S
ROCK SPRINGS   CLEAR     42  26  53 SW7       30.21F
KEMMERER       CLEAR     36  30  80 N7        30.24F WCI  30

$$


USA.gov is the U.S. government's official web portal to all federal, state and local government web resources and services.